This is the latest recevied weather packets stored in our database for station/object WA1OUI. If no packets are shown the sender has not sent any weather packets the latest 10 day(s).
| Time | Temp. | Humidity | Pressure | Rain* | Wind** | Luminosity | Snow |
|---|---|---|---|---|---|---|---|
| 1777241538 | 15.56° C | 39% | 1017.6 hPa | 0 mm | - | 27 W/m² | - |
| 1777241236 | 15.56° C | 44% | 1017.6 hPa | 0 mm | - | 28 W/m² | - |
| 1777240932 | 15.56° C | 48% | 1017.4 hPa | 0 mm | - | 28 W/m² | - |
| 1777240630 | 15.56° C | 40% | 1017.5 hPa | 0 mm | - | 30 W/m² | - |
| 1777240328 | 16.11° C | 40% | 1017.3 hPa | 0 mm | - | 30 W/m² | - |
| 1777240025 | 16.11° C | 41% | 1017.4 hPa | 0 mm | - | 31 W/m² | - |
| 1777239722 | 16.11° C | 38% | 1017.5 hPa | 0 mm | - | 32 W/m² | - |
| 1777239419 | 16.11° C | 38% | 1017.5 hPa | 0 mm | - | 32 W/m² | - |
| 1777239116 | 16.67° C | 35% | 1017.7 hPa | 0 mm | - | 33 W/m² | - |
| 1777238813 | 16.67° C | 36% | 1017.4 hPa | 0 mm | - | 41 W/m² | - |
| 1777238510 | 16.67° C | 38% | 1017.3 hPa | 0 mm | - | 36 W/m² | - |
| 1777238206 | 16.67° C | 36% | 1017.4 hPa | 0 mm | - | 44 W/m² | - |
| 1777237903 | 16.67° C | 36% | 1017.3 hPa | 0 mm | - | 67 W/m² | - |
| 1777237599 | 16.67° C | 35% | 1017.3 hPa | 0 mm | - | 87 W/m² | - |
| 1777237297 | 17.22° C | 35% | 1017.2 hPa | 0 mm | - | 90 W/m² | - |
| 1777236994 | 17.22° C | 37% | 1017.3 hPa | 0 mm | - | 66 W/m² | - |
| 1777236692 | 17.22° C | 37% | 1017.3 hPa | 0 mm | - | 105 W/m² | - |
| 1777236392 | 17.22° C | 38% | 1017.2 hPa | 0 mm | - | 95 W/m² | - |
| 1777236088 | 17.22° C | 39% | 1017.1 hPa | 0 mm | - | 63 W/m² | - |
| 1777235785 | 17.22° C | 37% | 1017.3 hPa | 0 mm | - | 129 W/m² | - |
| 1777235481 | 17.78° C | 36% | 1017.2 hPa | 0 mm | - | 68 W/m² | - |
| 1777235177 | 18.33° C | 35% | 1017.2 hPa | 0 mm | - | 120 W/m² | - |
| 1777234874 | 17.78° C | 36% | 1017.2 hPa | 0 mm | - | 384 W/m² | - |
| 1777234570 | 17.78° C | 36% | 1017.2 hPa | 0 mm | - | 401 W/m² | - |
| 1777234270 | 17.78° C | 35% | 1017.3 hPa | 0 mm | - | 419 W/m² | - |
* Rain latest hour (hover to see other rain measurements)
** Current wind speed in m/s (hover to see current wind gust speed)